Ft Lauderdale, FL

8:59 AM EST on December 06, 2019 (GMT -0500)
Fort Lauderdale-Hollywood International

Weather History for KFLL - November, 2019

Change the Weather History Date:

Friday, November 22, 2019

  Actual Average Record
Temperature  
Mean Temperature 76 °F 75 °F  
Max Temperature 80 °F 81 °F 89 °F (1923)
Min Temperature 71 °F 68 °F 43 °F (1952)
Degree Days  
Heating Degree Days 0 0  
Month to date heating degree days 6 0  
Since 1 July heating degree days 6 0  
Cooling Degree Days 11 10  
Month to date cooling degree days 239 246  
Year to date cooling degree days 4747 4440  
Growing Degree Days 25 (Base 50)    
Moisture  
Dew Point 60 °F    
Average Humidity 61    
Maximum Humidity 68    
Minimum Humidity 54    
Precipitation  
Precipitation T in 0.07 in 2.76 in (1912)
Month to date precipitation 5.73 2.51  
Year to date precipitation 51.01 58.99  
Snow  
Snow 0.00 in - - ()
Month to date snowfall 0.0  
Since 1 July snowfall 0.0  
Since 1 September snowfall 0.0  
Snow Depth 0.00 in    
Sea Level Pressure  
Sea Level Pressure 30.07 in    
Wind  
Wind Speed 9 mph (East)    
Max Wind Speed 16 mph    
Max Gust Speed 20 mph    
Visibility 10 miles    
Events      
T = Trace of Precipitation, MM = Missing Value Source: NWS Daily Summary

Daily Weather History Graph

Daily Weather History Graph

Search for Another Location

Airport or City:

Astronomy

Nov. 22, 2019 Rise Set
Actual Time 6:43 AM EST 5:29 PM EST
Civil Twilight 6:19 AM EST 5:53 PM EST
Nautical Twilight 5:51 AM EST 6:21 PM EST
Astronomical Twilight 5:23 AM EST 6:49 PM EST
Moon 2:23 AM EST (11/22) 2:57 PM EST (11/22)
Length of Visible Light 11h 34m
Length of Day
10h 45m
Waning Crescent, 20% of the Moon is Illuminated
Nov 22
Waning Crescent
Nov 26
New
Dec 4
First Quarter
Dec 12
Full
Dec 18
Last Quarter

Hourly Weather History & Observations

Time (EST) Temp. Dew Point Humidity Pressure Visibility Wind Dir Wind Speed Gust Speed Precip Events Conditions
12:53 AM 72.0 °F 57.9 °F 61% 30.09 in 10.0 mi ENE 10.4 mph - N/A   Partly Cloudy
1:53 AM 72.0 °F 59.0 °F 64% 30.07 in 10.0 mi East 9.2 mph - N/A   Scattered Clouds
2:53 AM 72.0 °F 61.0 °F 68% 30.06 in 10.0 mi East 10.4 mph - N/A   Mostly Cloudy
3:53 AM 73.0 °F 60.1 °F 64% 30.06 in 10.0 mi ENE 10.4 mph - N/A   Overcast
4:53 AM 73.0 °F 60.1 °F 64% 30.05 in 10.0 mi ENE 10.4 mph - N/A   Overcast
5:53 AM 73.9 °F 61.0 °F 64% 30.07 in 10.0 mi East 12.7 mph - N/A   Overcast
6:53 AM 73.9 °F 59.0 °F 59% 30.09 in 10.0 mi ESE 13.8 mph - N/A   Mostly Cloudy
7:53 AM 73.9 °F 57.9 °F 57% 30.09 in 10.0 mi East 12.7 mph - N/A   Mostly Cloudy
8:53 AM 75.9 °F 57.9 °F 54% 30.12 in 10.0 mi East 12.7 mph - N/A   Overcast
9:53 AM 75.0 °F 61.0 °F 62% 30.12 in 10.0 mi East 10.4 mph - N/A   Mostly Cloudy
10:53 AM 77.0 °F 59.0 °F 54% 30.10 in 10.0 mi ESE 13.8 mph - N/A   Mostly Cloudy
11:53 AM 78.1 °F 60.1 °F 54% 30.09 in 10.0 mi East 10.4 mph - N/A   Overcast
1:53 PM 77.0 °F 59.0 °F 54% 30.04 in 10.0 mi East 10.4 mph - N/A   Mostly Cloudy
2:53 PM 77.0 °F 59.0 °F 54% 30.04 in 10.0 mi ESE 8.1 mph - N/A   Mostly Cloudy
3:53 PM 75.9 °F 59.0 °F 56% 30.04 in 10.0 mi East 6.9 mph - N/A   Scattered Clouds
4:53 PM 75.9 °F 60.1 °F 58% 30.04 in 10.0 mi ENE 5.8 mph - N/A   Mostly Cloudy
5:53 PM 73.0 °F 60.1 °F 64% 30.04 in 10.0 mi Calm Calm - N/A   Scattered Clouds
6:53 PM 73.0 °F 61.0 °F 66% 30.05 in 10.0 mi NNE 4.6 mph - N/A   Mostly Cloudy
7:53 PM 75.0 °F 62.1 °F 64% 30.06 in 10.0 mi ESE 4.6 mph - 0.00 in   Mostly Cloudy
8:53 PM 75.0 °F 61.0 °F 62% 30.06 in 10.0 mi ESE 8.1 mph - N/A   Mostly Cloudy
9:53 PM 75.0 °F 62.1 °F 64% 30.07 in 10.0 mi SE 5.8 mph - N/A   Mostly Cloudy
10:53 PM 73.0 °F 63.0 °F 71% 30.06 in 10.0 mi Calm Calm - N/A   Mostly Cloudy